N2NET Weather Reports


time (UTC)temp
C
wind
direction
speed
KPH
gust
KPH
rain 1hr
cm
rain 24hr
cm
rain mn
cm
humidity
%
barometer
mb
20260505124552 17 116 0.0 8.0 0.00 0.00 0.00 64 1008.5
20260505123107 16 218 1.6 4.8 0.00 0.00 0.00 67 1008.6
20260505121601 13 0 0.0 0.0 0.00 0.00 0.00 68 1008.8
20260505120058 12 0 0.0 4.8 0.00 0.00 0.00 58 1008.8
20260505114614 10 283 0.0 3.2 0.00 0.00 0.00 40 1008.8
20260505113058 10 321 0.0 1.6 0.00 0.00 0.00 48 1009.0
20260505111605 9 335 1.6 4.8 0.00 0.00 0.00 41 1008.9
20260505101548 7 57 3.2 6.4 0.00 0.00 0.00 31 1008.4
20260505100051 7 0 0.0 1.6 0.00 0.00 0.00 46 1008.5
20260505094550 8 0 0.0 0.0 0.00 0.00 0.00 53 1008.5
20260505093050 8 183 1.6 3.2 0.00 0.00 0.00 57 1008.2
20260505091549 8 22 0.0 1.6 0.00 0.00 0.00 64 1008.0
20260505090058 8 0 1.6 6.4 0.00 0.00 0.00 67 1008.1
20260505084557 8 199 1.6 6.4 0.00 0.00 0.00 68 1008.1
20260505083118 9 0 0.0 1.6 0.00 0.00 0.00 72 1008.1
20260505081557 10 20 0.0 8.0 0.00 0.00 0.00 72 1008.2
20260505080056 10 325 3.2 8.0 0.00 0.00 0.00 71 1008.4
20260505074552 8 0 0.0 6.4 0.00 0.00 0.00 68 1008.2
20260505073107 9 0 0.0 4.8 0.00 0.00 0.00 70 1008.2
20260505071552 9 321 0.0 1.6 0.00 0.00 0.00 72 1008.0
20260505070053 9 0 0.0 4.8 0.00 0.00 0.00 73 1008.1
20260505064601 10 0 0.0 1.6 0.00 0.00 0.00 73 1008.0
20260505063054 10 59 1.6 8.0 0.00 0.00 0.00 73 1008.0
20260505061554 10 0 0.0 3.2 0.00 0.00 0.00 72 1008.2
20260505054604 11 0 0.0 0.0 0.00 0.00 0.00 67 1008.4
20260505053109 13 0 0.0 4.8 0.00 0.00 0.00 60 1008.5
20260505051553 13 101 0.0 3.2 0.00 0.00 0.00 58 1008.6
20260505041612 13 58 3.2 8.0 0.00 0.00 0.00 58 1008.8
20260505040053 12 41 3.2 11.3 0.00 0.00 0.00 66 1008.7
20260505034549 12 0 3.2 4.8 0.00 0.00 0.00 66 1008.8
20260505033055 11 145 0.0 3.2 0.00 0.00 0.00 67 1008.8
20260505031559 12 145 0.0 6.4 0.00 0.00 0.00 66 1008.9
20260505030052 11 137 1.6 3.2 0.00 0.00 0.00 68 1008.9
20260505024551 11 34 1.6 6.4 0.00 0.00 0.00 66 1008.9
20260505023100 11 97 1.6 12.9 0.00 0.00 0.00 67 1008.9
20260505021552 10 353 1.6 3.2 0.00 0.00 0.00 72 1008.8
20260505020054 10 0 0.0 3.2 0.00 0.00 0.00 71 1008.9
20260505014550 10 141 0.0 1.6 0.00 0.00 0.00 70 1009.0
20260505013049 11 0 0.0 0.0 0.00 0.00 0.00 68 1008.9
20260505011552 11 0 0.0 3.2 0.00 0.00 0.00 66 1008.7
20260505010053 11 331 1.6 4.8 0.00 0.00 0.00 65 1008.3
20260505004552 12 0 0.0 4.8 0.00 0.00 0.00 62 1008.0
20260505003048 13 328 1.6 4.8 0.00 0.00 0.00 57 1007.9
20260505001552 15 325 1.6 4.8 0.00 0.00 0.00 54 1007.7
20260505000106 17 341 0.0 4.8 0.00 0.00 0.00 47 1007.4
20260504234610 18 0 0.0 14.5 0.00 0.00 0.00 37 1007.0
20260504233051 19 139 1.6 6.4 0.00 0.00 0.00 36 1007.0
20260504231603 20 296 1.6 12.9 0.00 0.00 0.00 35 1006.8
20260504230052 20 239 6.4 17.7 0.00 0.00 0.00 35 1006.7
20260504224555 -17 0.0 0.0 0.00 0.00 0.00 1006.6
20260504223058 -17 0.0 0.0 0.00 0.00 0.00 1006.4
20260504221558 -17 0.0 0.0 0.00 0.00 0.00 1006.2
20260504220055 -17 0.0 0.0 0.00 0.00 0.00 1006.4
20260504214554 -17 0.0 0.0 0.00 0.00 0.00 1006.5
20260504213055 -17 0.0 0.0 0.00 0.00 0.00 1006.6
20260504211554 -17 0.0 0.0 0.00 0.00 0.00 1006.7
20260504210107 -17 0.0 0.0 0.00 0.00 0.00 1006.8
20260504204602 -17 0.0 0.0 0.00 0.00 0.00 1006.8
20260504203054 -17 0.0 0.0 0.00 0.00 0.00 1007.1
20260504201556 -17 0.0 0.0 0.00 0.00 0.00 1007.0
20260504200059 -17 0.0 0.0 0.00 0.00 0.00 1007.2
20260504194607 -17 0.0 0.0 0.00 0.03 0.00 1007.5
20260504193056 -17 0.0 0.0 0.00 0.03 0.00 1007.6
20260504191555 -17 0.0 0.0 0.00 0.03 0.00 1007.6
20260504190120 -17 0.0 0.0 0.00 0.03 0.00 1007.8
20260504184556 -17 0.0 0.0 0.00 0.03 0.00 1007.6
20260504183050 18 239 8.0 22.5 0.00 0.03 0.00 100 1007.7
20260504181600 19 314 6.4 22.5 0.00 0.03 0.00 36 1007.7
20260504180155 18 314 8.0 20.9 0.00 0.03 0.00 38 1007.9
20260504174557 19 297 4.8 27.4 0.00 0.03 0.00 35 1007.9
20260504173059 18 284 6.4 40.2 0.00 0.03 0.00 38 1008.1
20260504171557 17 287 8.0 25.7 0.00 0.03 0.00 38 1008.2